Monclova, OH

1:22 PM EST on February 10, 2016 (GMT -0500)
Toledo Express

Weather History for KTOL - August, 2013

Change the Weather History Date:

Sunday, August 11, 2013

  Actual Average Record
Temperature  
Mean Temperature 70 °F 72 °F  
Max Temperature 82 °F 83 °F 97 °F (1944)
Min Temperature 57 °F 62 °F 45 °F (1967)
Degree Days  
Heating Degree Days 0 0  
Month to date heating degree days 4 0  
Since 1 June heating degree days 48 38  
Since 1 July heating degree days 17 3  
Cooling Degree Days 5 7  
Month to date cooling degree days 50 86  
Year to date cooling degree days 551 574  
Since 1 June cooling degree days 457 521  
Growing Degree Days 20 (Base 50)    
Moisture  
Dew Point 57 °F    
Average Humidity 68    
Maximum Humidity 97    
Minimum Humidity 39    
Precipitation  
Precipitation 0.00 in 0.09 in 2.04 in (2014)
Month to date precipitation 1.49 1.17  
Year to date precipitation 26.28 21.34  
Snow  
Snow 0.00 in 0.00 in - ()
Month to date snowfall 0.0 0.0  
Since 1 June snowfall 0.0 0.0  
Since 1 July snowfall 0.0 0.0  
Snow Depth 0.00 in    
Sea Level Pressure  
Sea Level Pressure 30.09 in    
Wind  
Wind Speed 2 mph (WNW)    
Max Wind Speed 12 mph    
Max Gust Speed 16 mph    
Visibility 10 miles    
Events      
T = Trace of Precipitation, MM = Missing Value Source: NWS Daily Summary

Daily Weather History Graph

Daily Weather History Graph

Search for Another Location

Airport or City:

Trip Planner

Search our weather history database for the weather conditions in past years. The results will help you decide how hot, cold, wet, or windy it might be!

Date:

Astronomy

Aug. 11, 2013 Rise Set
Actual Time 6:40 AM EDT 8:40 PM EDT
Civil Twilight 6:09 AM EDT 9:10 PM EDT
Nautical Twilight 5:32 AM EDT 9:46 PM EDT
Astronomical Twilight 4:52 AM EDT 10:26 PM EDT
Moon 11:31 AM EDT (8/11) 10:50 PM EDT (8/11)
Length of Visible Light 15h 00m
Length of Day
13h 59m
Waxing Crescent, 22% of the Moon is Illuminated
Aug 11
Waxing Crescent
Aug 14
First Quarter
Aug 20
Full
Aug 28
Last Quarter
Sep 5
New

Hourly Weather History & Observations

Time (EDT) Temp. Heat Index Dew Point Humidity Pressure Visibility Wind Dir Wind Speed Gust Speed Precip Events Conditions
12:52 AM 60.1 °F - 59.0 °F 96% 30.12 in 10.0 mi Calm Calm - N/A   Clear
1:52 AM 60.1 °F - 57.9 °F 93% 30.12 in 10.0 mi Calm Calm - N/A   Clear
2:52 AM 59.0 °F - 57.0 °F 93% 30.11 in 10.0 mi Calm Calm - N/A   Clear
3:52 AM 57.9 °F - 55.9 °F 93% 30.11 in 10.0 mi Calm Calm - N/A   Clear
4:52 AM 57.9 °F - 55.9 °F 93% 30.11 in 10.0 mi Calm Calm - N/A   Clear
5:52 AM 57.9 °F - 55.0 °F 90% 30.11 in 10.0 mi Calm Calm - N/A   Scattered Clouds
6:52 AM 57.9 °F - 55.9 °F 93% 30.13 in 8.0 mi Calm Calm - N/A   Mostly Cloudy
7:52 AM 60.1 °F - 57.0 °F 90% 30.13 in 9.0 mi Calm Calm - N/A   Mostly Cloudy
8:52 AM 66.0 °F - 59.0 °F 78% 30.12 in 10.0 mi Calm Calm - N/A   Clear
9:52 AM 70.0 °F - 57.9 °F 65% 30.12 in 10.0 mi Variable 3.5 mph - N/A   Clear
10:52 AM 73.9 °F - 55.9 °F 53% 30.12 in 10.0 mi Variable 3.5 mph - N/A   Clear
11:52 AM 75.0 °F - 57.9 °F 55% 30.11 in 10.0 mi Calm Calm - N/A   Clear
12:52 PM 79.0 °F - 55.9 °F 45% 30.10 in 10.0 mi Calm Calm - N/A   Clear
1:52 PM 80.1 °F 79.9 °F 53.1 °F 39% 30.09 in 10.0 mi WSW 4.6 mph - N/A   Mostly Cloudy
2:52 PM 80.1 °F 79.9 °F 53.1 °F 39% 30.09 in 10.0 mi WNW 5.8 mph - N/A   Partly Cloudy
3:52 PM 81.0 °F 80.5 °F 54.0 °F 39% 30.07 in 10.0 mi WNW 6.9 mph - N/A   Clear
4:52 PM 81.0 °F 80.8 °F 55.9 °F 42% 30.06 in 10.0 mi NW 8.1 mph - N/A   Mostly Cloudy
5:52 PM 80.1 °F 80.2 °F 55.9 °F 43% 30.05 in 10.0 mi WNW 8.1 mph - N/A   Clear
6:52 PM 79.0 °F - 57.0 °F 47% 30.04 in 10.0 mi WNW 5.8 mph - N/A   Clear
7:52 PM 75.9 °F - 57.9 °F 54% 30.04 in 10.0 mi NW 4.6 mph - N/A   Clear
8:52 PM 73.0 °F - 61.0 °F 66% 30.05 in 10.0 mi West 3.5 mph - N/A   Scattered Clouds
9:52 PM 68.0 °F - 62.1 °F 81% 30.06 in 10.0 mi Calm Calm - N/A   Mostly Cloudy
10:52 PM 70.0 °F - 60.1 °F 71% 30.06 in 10.0 mi NW 3.5 mph - N/A   Partly Cloudy
11:52 PM 66.0 °F - 60.1 °F 81% 30.07 in 10.0 mi Calm Calm - N/A   Overcast